Cairns, Australia

10:20 PM AEST on October 23, 2017 (GMT +1000)
Cairns International

Weather History for YBCS - August, 2014

Change the Weather History Date:

Thursday, August 28, 2014

  Actual Average Record
Temperature  
Mean Temperature 65 °F -  
Max Temperature 80 °F 82 °F 84 °F (2006)
Min Temperature 50 °F 66 °F 50 °F (2014)
Growing Degree Days 15 (Base 50)    
Moisture  
Dew Point 48 °F    
Average Humidity 58    
Maximum Humidity 100    
Minimum Humidity 14    
Precipitation  
Precipitation 0.00 in 0.04 in - ()
Sea Level Pressure  
Sea Level Pressure 30.03 in    
Wind  
Wind Speed 6 mph ()    
Max Wind Speed 18 mph    
Max Gust Speed -    
Visibility 9.0 miles    
Events      
Averages and records for this station are not official NWS values.
T = Trace of Precipitation, MM = Missing Value Source: Averaged Metar Reports

Daily Weather History Graph

Daily Weather History Graph

Search for Another Location

Airport or City:

Trip Planner

Search our weather history database for the weather conditions in past years. The results will help you decide how hot, cold, wet, or windy it might be!

Date:

Astronomy

Aug. 28, 2014 Rise Set
Actual Time 6:27 AM AEST 6:09 PM AEST
Civil Twilight 6:05 AM AEST 6:31 PM AEST
Nautical Twilight 5:39 AM AEST 6:57 PM AEST
Astronomical Twilight 5:14 AM AEST 7:22 PM AEST
Moon 7:48 AM AEST (8/28) 8:15 PM AEST (8/28)
Length of Visible Light 12h 26m
Length of Day
11h 42m
Waxing Crescent, 6% of the Moon is Illuminated
Aug 28
Waxing Crescent
Sep 2
First Quarter
Sep 9
Full
Sep 16
Last Quarter
Sep 24
New

Hourly Weather History & Observations

Time (AEST) Temp. Dew Point Humidity Pressure Visibility Wind Dir Wind Speed Gust Speed Precip Events Conditions
12:00 AM 58 °F 55 °F 86% 30.04 in - Calm Calm - -  
12:00 AM 57.2 °F 55.4 °F 94% 30.04 in - Calm Calm - N/A   Clear
12:30 AM 57.2 °F 55.4 °F 94% 30.04 in - Calm Calm - N/A   Clear
1:00 AM 56 °F 55 °F 95% 30.04 in - West 1.2 mph - -  
1:00 AM 57.2 °F 55.4 °F 94% 30.01 in - West 1.2 mph - N/A   Clear
1:30 AM 55.4 °F 53.6 °F 94% 30.04 in - Calm Calm - N/A   Clear
2:00 AM 55.4 °F 53.6 °F 94% 30.01 in - West 4.6 mph - N/A   Clear
2:30 AM 53.6 °F 53.6 °F 100% 30.01 in - Calm Calm - N/A   Clear
3:00 AM 54 °F 53 °F 94% 30.02 in - Calm Calm - -  
3:00 AM 53.6 °F 53.6 °F 100% 30.01 in - Calm Calm - N/A   Clear
3:30 AM 53.6 °F 51.8 °F 94% 30.01 in - Calm Calm - N/A   Clear
4:00 AM 54 °F 53 °F 95% 30.02 in - Calm Calm - -  
4:00 AM 53.6 °F 53.6 °F 100% 30.01 in - Calm Calm - N/A   Clear
4:30 AM 53.6 °F 53.6 °F 100% 30.01 in - Calm Calm - N/A   Clear
5:00 AM 53.6 °F 51.8 °F 94% 30.01 in - Calm Calm - N/A   Clear
5:30 AM 53.6 °F 53.6 °F 100% 30.01 in - Calm Calm - N/A   Clear
6:00 AM 54 °F 52 °F 90% 30.03 in 19 mi WNW 2.3 mph - -   Partly Cloudy
6:00 AM 53.6 °F 51.8 °F 94% 30.04 in 6.2 mi WNW 2.3 mph - N/A   Partly Cloudy
6:30 AM 53.6 °F 51.8 °F 94% 30.04 in 6.2 mi SW 2.3 mph - N/A   Partly Cloudy
7:00 AM 55 °F 52 °F 88% 30.06 in - WSW 3.5 mph - -  
7:00 AM 55.4 °F 51.8 °F 88% 30.04 in 6.2 mi WSW 3.5 mph - N/A   Partly Cloudy
7:30 AM 57.2 °F 53.6 °F 88% 30.06 in 6.2 mi West 3.5 mph - N/A   Partly Cloudy
8:00 AM 60.8 °F 51.8 °F 72% 30.06 in 6.2 mi WSW 3.5 mph - N/A   Partly Cloudy
8:30 AM 66.2 °F 53.6 °F 64% 30.06 in 6.2 mi Calm Calm - N/A   Partly Cloudy
9:00 AM 71 °F 47 °F 31% 30.07 in 19 mi SE 11.5 mph - -   Partly Cloudy
9:00 AM 71.6 °F 46.4 °F 41% 30.06 in 6.2 mi SE 11.5 mph - N/A   Partly Cloudy
9:30 AM 75.2 °F 46.4 °F 36% 30.06 in 6.2 mi SSE 11.5 mph - N/A   Partly Cloudy
10:00 AM 75 °F 46 °F 25% 30.08 in - South 9.2 mph - -  
10:00 AM 75.2 °F 46.4 °F 36% 30.06 in 6.2 mi South 9.2 mph - N/A   Partly Cloudy
10:30 AM 75.2 °F 46.4 °F 36% 30.06 in 6.2 mi South 10.4 mph - N/A   Partly Cloudy
11:00 AM 77.0 °F 42.8 °F 29% 30.06 in 6.2 mi SE 11.5 mph - N/A   Partly Cloudy
11:30 AM 80.6 °F 39.2 °F 23% 30.04 in 6.2 mi ESE 16.1 mph - N/A   Partly Cloudy
12:00 PM 79 °F 40 °F 15% 30.04 in 19 mi ESE 17.3 mph - -   Partly Cloudy
12:00 PM 78.8 °F 39.2 °F 24% 30.04 in 6.2 mi ESE 17.3 mph - N/A   Partly Cloudy
12:30 PM 80.6 °F 39.2 °F 23% 30.04 in - ESE 17.3 mph - N/A   Clear
1:00 PM 79 °F 39 °F 14% 30.02 in - ESE 17.3 mph - -  
1:00 PM 78.8 °F 39.2 °F 24% 30.01 in 6.2 mi ESE 17.3 mph - N/A   Partly Cloudy
1:30 PM 78.8 °F 41.0 °F 26% 30.01 in - ESE 17.3 mph - N/A   Clear
2:00 PM 78.8 °F 39.2 °F 24% 30.01 in - ESE 17.3 mph - N/A   Clear
2:30 PM 78.8 °F 41.0 °F 26% 29.98 in - ESE 17.3 mph - N/A   Clear
3:00 PM 78 °F 42 °F 17% 29.98 in 19 mi SE 18.4 mph - -   Partly Cloudy
3:00 PM 78.8 °F 41.0 °F 26% 29.98 in - SE 18.4 mph - N/A   Clear
3:30 PM 78.8 °F 42.8 °F 28% 29.98 in - SE 17.3 mph - N/A   Clear
4:00 PM 78 °F 38 °F 14% 29.99 in - SE 16.1 mph - -  
4:00 PM 78.8 °F 39.2 °F 24% 29.98 in - SE 16.1 mph - N/A   Clear
4:30 PM 77.0 °F 41.0 °F 28% 29.98 in - SE 17.3 mph - N/A   Clear
5:00 PM 75.2 °F 46.4 °F 36% 29.98 in - SE 18.4 mph - N/A   Clear
5:30 PM 73.4 °F 48.2 °F 41% 30.01 in - SE 16.1 mph - N/A   Clear
6:00 PM 71 °F 50 °F 37% 30.02 in - SE 15.0 mph - -  
6:00 PM 71.6 °F 50.0 °F 46% 30.01 in - SE 15.0 mph - N/A   Clear
6:30 PM 68.0 °F 51.8 °F 56% 30.04 in - SSE 8.1 mph - N/A   Clear
7:00 PM 67 °F 52 °F 48% 30.05 in - SSE 6.9 mph - -  
7:00 PM 68.0 °F 51.8 °F 56% 30.04 in - SSE 6.9 mph - N/A   Clear
7:30 PM 68.0 °F 48.2 °F 49% 30.04 in - South 6.9 mph - N/A   Clear
8:00 PM 68.0 °F 50.0 °F 52% 30.06 in - South 6.9 mph - N/A   Clear
8:30 PM 66.2 °F 48.2 °F 52% 30.06 in - South 6.9 mph - N/A   Clear
9:00 PM 67 °F 48 °F 40% 30.08 in - South 8.1 mph - -  
9:00 PM 68.0 °F 48.2 °F 49% 30.06 in - South 8.1 mph - N/A   Clear
9:30 PM 64.4 °F 50.0 °F 59% 30.06 in - ESE 10.4 mph - N/A   Clear
10:00 PM 62 °F 50 °F 56% 30.09 in - ESE 12.7 mph - -  
10:00 PM 62.6 °F 50.0 °F 63% 30.06 in - ESE 12.7 mph - N/A   Clear
10:30 PM 60.8 °F 50.0 °F 68% 30.06 in - SE 11.5 mph - N/A   Clear
11:00 PM 60.8 °F 50.0 °F 68% 30.06 in - South 6.9 mph - N/A   Clear
11:30 PM 59.0 °F 50.0 °F 72% 30.06 in - SSE 4.6 mph - N/A   Clear